Fort Dix, NJ

11:55 PM EST on February 07, 2016 (GMT -0500)
McGuire Air Force Base

Weather History for KWRI - December, 2014

Change the Weather History Date:

Monday, December 22, 2014

  Actual Average Record
Temperature  
Mean Temperature 37 °F -  
Max Temperature 44 °F 41 °F 72 °F (2013)
Min Temperature 30 °F 24 °F 14 °F (2008)
Degree Days  
Heating Degree Days 28    
Moisture  
Dew Point 37 °F    
Average Humidity 91    
Maximum Humidity 100    
Minimum Humidity 74    
Precipitation  
Precipitation 0.01 in - - ()
Sea Level Pressure  
Sea Level Pressure 30.20 in    
Wind  
Wind Speed 5 mph (NNE)    
Max Wind Speed 9 mph    
Max Gust Speed -    
Visibility 9 miles    
Events Rain    
Averages and records for this station are not official NWS values.
T = Trace of Precipitation, MM = Missing Value Source: NWS Daily Summary

Daily Weather History Graph

Daily Weather History Graph

Search for Another Location

Airport or City:

Trip Planner

Search our weather history database for the weather conditions in past years. The results will help you decide how hot, cold, wet, or windy it might be!

Date:

Astronomy

Dec. 22, 2014 Rise Set
Actual Time 7:17 AM EST 4:36 PM EST
Civil Twilight 6:46 AM EST 5:07 PM EST
Nautical Twilight 6:12 AM EST 5:41 PM EST
Astronomical Twilight 5:39 AM EST 6:14 PM EST
Moon 7:27 AM EST (12/22) 5:42 PM EST (12/22)
Length of Visible Light 10h 20m
Length of Day
9h 19m
New Moon, 1% of the Moon is Illuminated
Dec 22
New Moon
Dec 28
First Quarter
Jan 4
Full
Jan 13
Last Quarter
Jan 20
New

Hourly Weather History & Observations

Time (EST) Temp. Windchill Dew Point Humidity Pressure Visibility Wind Dir Wind Speed Gust Speed Precip Events Conditions
12:58 AM 31.8 °F 27.3 °F 26.1 °F 79% 30.31 in 10.0 mi NNW 4.6 mph - N/A   Overcast
1:58 AM 33.1 °F - 26.1 °F 75% 30.33 in 10.0 mi NW 2.3 mph - N/A   Overcast
2:08 AM 32.0 °F 27.5 °F 26.6 °F 80% 30.31 in 10.0 mi NW 4.6 mph - N/A   Overcast
2:58 AM 33.4 °F - 27.1 °F 78% 30.32 in 10.0 mi NNW 2.3 mph - N/A   Overcast
3:43 AM 32.0 °F 27.5 °F 28.4 °F 87% 30.30 in 10.0 mi NNW 4.6 mph - N/A   Overcast
3:48 AM 32.0 °F 28.7 °F 28.4 °F 87% 30.30 in 10.0 mi NNW 3.5 mph - N/A   Overcast
3:58 AM 33.6 °F 29.4 °F 27.7 °F 79% 30.32 in 10.0 mi NNW 4.6 mph - N/A   Overcast
4:58 AM 33.8 °F 30.8 °F 28.4 °F 81% 30.30 in 10.0 mi NNE 3.5 mph - N/A   Overcast
5:48 AM 33.8 °F 29.6 °F 28.4 °F 81% 30.28 in 10.0 mi North 4.6 mph - N/A   Overcast
5:58 AM 34.0 °F 28.8 °F 29.3 °F 83% 30.30 in 10.0 mi North 5.8 mph - N/A   Overcast
6:03 AM 33.8 °F 29.6 °F 28.4 °F 81% 30.28 in 10.0 mi North 4.6 mph - N/A   Overcast
6:58 AM 33.1 °F 28.7 °F 29.3 °F 86% 30.30 in 10.0 mi North 4.6 mph - N/A   Overcast
7:33 AM 32.0 °F 27.5 °F 28.4 °F 87% 30.28 in 10.0 mi North 4.6 mph - N/A   Scattered Clouds
7:48 AM 32.0 °F 26.4 °F 28.4 °F 87% 30.28 in 10.0 mi North 5.8 mph - N/A   Mostly Cloudy
7:53 AM 32.0 °F 26.4 °F 28.4 °F 87% 30.28 in 10.0 mi North 5.8 mph - N/A   Scattered Clouds
7:58 AM 30.7 °F 26.0 °F 28.4 °F 91% 30.30 in 10.0 mi North 4.6 mph - N/A   Scattered Clouds
8:08 AM 32.0 °F 26.4 °F 30.2 °F 93% 30.28 in 10.0 mi NNE 5.8 mph - N/A   Mostly Cloudy
8:28 AM 32.0 °F 24.8 °F 32.0 °F 100% 30.28 in 10.0 mi NNE 8.1 mph - N/A   Scattered Clouds
8:58 AM 34.0 °F 28.0 °F 31.6 °F 91% 30.31 in 10.0 mi NNE 6.9 mph - N/A   Scattered Clouds
9:03 AM 35.6 °F 29.2 °F 32.0 °F 87% 30.29 in 10.0 mi NE 8.1 mph - N/A   Mostly Cloudy
9:33 AM 37.4 °F 31.4 °F 32.0 °F 81% 30.29 in 10.0 mi NNE 8.1 mph - N/A   Scattered Clouds
9:58 AM 40.1 °F 36.1 °F 33.8 °F 78% 30.32 in 10.0 mi NNE 5.8 mph - N/A   Clear
10:58 AM 42.4 °F 40.7 °F 35.2 °F 76% 30.31 in 10.0 mi NE 3.5 mph - N/A   Mostly Cloudy
11:58 AM 43.2 °F 39.7 °F 35.4 °F 74% 30.26 in 10.0 mi East 5.8 mph - N/A   Overcast
12:58 PM 43.9 °F 38.8 °F 36.3 °F 75% 30.22 in 10.0 mi ENE 9.2 mph - N/A   Overcast
1:53 PM 42.8 °F 38.0 °F 37.4 °F 81% 30.20 in 10.0 mi NNE 8.1 mph - N/A   Overcast
1:58 PM 42.1 °F 36.6 °F 36.7 °F 81% 30.22 in 10.0 mi NNE 9.2 mph - N/A   Overcast
2:23 PM 41.0 °F 37.1 °F 37.4 °F 87% 30.20 in 8.0 mi NNE 5.8 mph - N/A   Mostly Cloudy
2:28 PM 42.8 °F 39.3 °F 37.4 °F 81% 30.20 in 10.0 mi NE 5.8 mph - N/A   Mostly Cloudy
2:58 PM 41.9 °F 38.2 °F 37.4 °F 84% 30.21 in 9.0 mi NNE 5.8 mph - N/A   Mostly Cloudy
3:58 PM 41.4 °F 36.8 °F 37.2 °F 85% 30.19 in 10.0 mi NE 6.9 mph - N/A   Clear
4:58 PM 38.7 °F 34.3 °F 36.1 °F 91% 30.18 in 9.0 mi NNE 5.8 mph - N/A   Scattered Clouds
5:58 PM 40.5 °F 35.8 °F 37.2 °F 88% 30.17 in 10.0 mi NNE 6.9 mph - N/A   Overcast
6:14 PM 41.0 °F 35.8 °F 37.4 °F 87% 30.16 in 10.0 mi North 8.1 mph - N/A Rain Light Rain
6:42 PM 41.0 °F 38.0 °F 37.4 °F 87% 30.17 in 10.0 mi NNE 4.6 mph - N/A   Scattered Clouds
6:46 PM 41.0 °F 38.0 °F 37.4 °F 87% 30.17 in 10.0 mi NNE 4.6 mph - N/A Rain Light Rain
6:51 PM 41.0 °F 37.1 °F 37.4 °F 87% 30.17 in 9.0 mi North 5.8 mph - N/A Rain Light Rain
6:58 PM 40.3 °F 35.5 °F 38.5 °F 93% 30.19 in 9.0 mi NNE 6.9 mph - 0.00 in Rain Light Rain
7:21 PM 41.0 °F 35.8 °F 39.2 °F 93% 30.16 in 10.0 mi North 8.1 mph - N/A   Mostly Cloudy
7:58 PM 40.3 °F 37.1 °F 39.6 °F 97% 30.19 in 9.0 mi NNE 4.6 mph - 0.00 in   Overcast
8:19 PM 41.0 °F 38.0 °F 39.2 °F 93% 30.16 in 7.0 mi North 4.6 mph - N/A Rain Light Rain
8:24 PM 41.0 °F 38.0 °F 41.0 °F 100% 30.16 in 7.0 mi NNE 4.6 mph - N/A Rain Light Rain
8:34 PM 41.0 °F 37.1 °F 41.0 °F 100% 30.15 in 7.0 mi NNE 5.8 mph - N/A Rain Light Rain
8:42 PM 41.0 °F 38.0 °F 41.0 °F 100% 30.15 in 6.0 mi NE 4.6 mph - N/A   Overcast
8:58 PM 40.5 °F 36.5 °F 40.3 °F 99% 30.16 in 7.0 mi NE 5.8 mph - 0.00 in   Overcast
9:00 PM 41.0 °F 37.1 °F 41.0 °F 100% 30.14 in 7.0 mi NE 5.8 mph - N/A Rain Light Rain
9:05 PM 41.0 °F 38.0 °F 41.0 °F 100% 30.14 in 6.0 mi NNE 4.6 mph - N/A Rain Light Rain
9:10 PM 41.0 °F 37.1 °F 41.0 °F 100% 30.14 in 6.0 mi North 5.8 mph - N/A Rain Light Rain
9:15 PM 41.0 °F 37.1 °F 41.0 °F 100% 30.14 in 7.0 mi NNE 5.8 mph - N/A Rain Light Rain
9:20 PM 41.0 °F 36.4 °F 41.0 °F 100% 30.14 in 8.0 mi NNE 6.9 mph - N/A Rain Light Rain
9:21 PM 41.0 °F 37.1 °F 41.0 °F 100% 30.14 in 8.0 mi NNE 5.8 mph - N/A   Overcast
9:31 PM 41.0 °F 38.0 °F 41.0 °F 100% 30.15 in 8.0 mi NNE 4.6 mph - N/A   Overcast
9:36 PM 41.0 °F 38.0 °F 41.0 °F 100% 30.15 in 8.0 mi NE 4.6 mph - N/A Rain Light Rain
9:41 PM 41.0 °F 37.1 °F 41.0 °F 100% 30.14 in 7.0 mi NE 5.8 mph - N/A Rain Light Rain
9:56 PM 41.0 °F 38.0 °F 41.0 °F 100% 30.14 in 6.0 mi NNE 4.6 mph - N/A Rain Light Rain
9:58 PM 41.4 °F 38.4 °F 41.2 °F 99% 30.16 in 6.0 mi NNE 4.6 mph - 0.01 in Rain Light Rain
10:02 PM 41.0 °F 38.0 °F 41.0 °F 100% 30.14 in 6.0 mi NNE 4.6 mph - N/A   Overcast
10:07 PM 41.0 °F 38.0 °F 41.0 °F 100% 30.13 in 8.0 mi NNE 4.6 mph - N/A   Overcast
10:15 PM 42.8 °F 40.1 °F 41.0 °F 93% 30.12 in 8.0 mi NE 4.6 mph - N/A Rain Light Rain
10:25 PM 42.8 °F 38.6 °F 41.0 °F 93% 30.12 in 7.0 mi NE 6.9 mph - N/A Rain Light Rain
10:27 PM 42.8 °F 38.6 °F 41.0 °F 93% 30.11 in 7.0 mi NE 6.9 mph - N/A   Overcast
10:42 PM 42.8 °F 40.1 °F 41.0 °F 93% 30.11 in 6.0 mi NE 4.6 mph - N/A   Overcast
10:47 PM 42.8 °F 39.3 °F 41.0 °F 93% 30.11 in 6.0 mi NE 5.8 mph - N/A   Overcast
10:58 PM 42.8 °F 38.0 °F 42.4 °F 99% 30.12 in 7.0 mi NE 8.1 mph - 0.00 in   Overcast
11:03 PM 42.8 °F 39.3 °F 42.8 °F 100% 30.10 in 7.0 mi ENE 5.8 mph - N/A   Overcast
11:23 PM 44.6 °F 42.2 °F 44.6 °F 100% 30.09 in 10.0 mi ENE 4.6 mph - N/A   Overcast
11:33 PM 44.6 °F 43.1 °F 44.6 °F 100% 30.09 in 10.0 mi NE 3.5 mph - N/A   Overcast
11:51 PM 44.6 °F - 44.6 °F 100% 30.10 in 10.0 mi NW 2.3 mph - N/A Rain Light Rain
11:56 PM 44.6 °F 43.1 °F 44.6 °F 100% 30.10 in 8.0 mi NW 3.5 mph - N/A Rain Light Rain
11:58 PM 44.4 °F 42.9 °F 44.4 °F 100% 30.12 in 8.0 mi NW 3.5 mph - 0.00 in Rain Light Rain